Location: Unspecified
(0.0000°N, 0.0000°E)
Time: 00:18:37
(UTC+02:00)

Orbus 21S - Visible Passes

Search period start: 23 September 2014 00:00
Search period end: 03 October 2014 00:00
Orbit: 324 x 33468 km, 24.1° (Epoch: 21 September)

Date Brightness Start Highest point End Pass type
(mag) Time Alt. Az. Time Alt. Az. Time Alt. Az.
23 Sep 9.2 00:00:00 45° ESE 00:14:19 45° ESE 02:15:30 10° ESE visible
23 Sep 8.2 23:08:33 10° WNW 00:46:31 62° W 08:15:10 10° ESE visible
24 Sep 7.5 18:28:11 10° NW 00:59:57 61° SE 03:31:53 10° ESE visible
26 Sep 5.9 08:21:02 10° WSW 09:17:32 48° S 09:23:09 10° E visible
26 Sep 8.2 19:35:53 10° NW 00:45:26 72° SSE 04:44:19 10° ESE visible
27 Sep 9.9 20:40:41 10° ESE 22:06:45 15° ESE 23:05:38 10° ESE visible
28 Sep 9.8 01:53:51 10° W 03:04:29 21° W 05:24:24 10° WSW visible
28 Sep 8.3 20:44:15 10° NW 23:18:28 81° SE 05:54:33 10° ESE visible
29 Sep 6.4 16:10:42 10° NNW 23:07:28 32° ESE 16:36:02 10° ENE visible
30 Sep 8.3 21:53:50 10° WNW 23:27:35 77° W 07:03:23 10° ESE visible
01 Oct 7.0 17:16:55 10° NNW 00:04:20 49° SE 02:14:24 10° ESE visible
02 Oct 9.2 23:05:52 10° WNW 00:00:00 52° W 00:00:00 52° W visible
